{"data":{"norad_id":61565,"epoch":"2026-05-25T04:02:53.969280Z","epoch_age_seconds":63696,"freshness":"FRESH","line1":"1 61565U 24185P   26145.16868020  .00000087  00000+0  11649-3 0  9990","line2":"2 61565  88.9873  64.1776 0008588 324.8399  35.2184 13.50783997 90101","mean_motion":13.50783997,"eccentricity":0.0008588,"inclination_deg":88.9873,"raan_deg":64.1776,"arg_perigee_deg":324.8399,"mean_anomaly_deg":35.2184,"bstar":0.00011649,"rev_number":9010,"period_min":106.60475717792,"perigee_km":1062.9795070657,"apogee_km":1075.7713544167,"semimajor_km":7447.5124307412,"source":"CELESTRAK","updated_at":"2026-05-25T13:38:02.416374Z"}}